Other Public Products
Issued by NWS Charleston, SC

Current Version | Previous Version | Graphics & Text | Print | Product List | Glossary Off
Versions: 1 2 3 4 5 6 7 8 9 10 11 12 13 14 15 16 17 18 19 20 21 22 23 24 25 26 27 28 29 30 31 32 33 34 35 36 37 38 39 40 41 42 43 44 45 46 47 48 49 50

000
FPUS82 KCHS 292127
OPUCHS

TEST...KCHS/KSAV Gateway Observations...TEST
National Weather Service Charleston SC
500 PM EDT MON MAY 29 2017

NOTE: "fair" indicates few or no clouds below 12,000 feet with no
significant weather and/or obstructions to visibility.

SCZ050-WAZ558-NCZ071-TXZ119-213-PAZ071-DCZ001-FLZ074-172-MI076-
NYZ176-178-MAZ016-IL014-TNZ027-NJZ106-GAZ044-MD014-292200-

...Gateway Observations for Charleston International...

CITY           SKY/WX    TMP DP  RH WIND       PRES   REMARKS
Chas Airport   MOSUNNY   92  67  43 SW7       29.96F HX  95
Seattle        MOSUNNY   67  54  63 CALM      29.99F
Charlotte      PTSUNNY   84  62  47 W6        29.97F
Dallas DFW     PTSUNNY   88  48  25 NE8       30.01F
Dallas Love    PTSUNNY   87  51  28 E6        30.02F
Philladelphia  CLOUDY    64  58  80 E8        30.00S
Wash National  PTSUNNY   83  53  35 NW14      29.94R
Baltimore      PTSUNNY   75  67  76 E9        29.95R
Miami          MOSUNNY   90  71  53 SE12G21   30.04F HX  96
Detroit        CLOUDY    73  55  53 SW14      29.83S
Newark         CLOUDY    60  53  77 VRB5      30.03R
Laguardia      CLOUDY    57  52  83 NE10      30.02S
J F K          CLOUDY    59  55  87 SE7       30.04R
Boston Logan   LGT RAIN  50  49  96 NE9       30.09R FOG
Ft. Lauderdale MOSUNNY   87  73  62 E15       30.03F HX  94
Chicago O`Hare MOSUNNY   75  43  31 W22G30    29.82S
Chicago Midway MOSUNNY   77  41  27 W22G32    29.82F
Houston Bush   CLOUDY    80  68  66 NE10      29.99S
Houston Hobby  CLOUDY    80  69  69 NE6       29.99S
Nashville      PTSUNNY   82  58  43 VRB5      29.98F
Atlanta        LGT RAIN  72  69  90 N6        30.03F

$$

GAZ044-118-TXZ119-213-NCZ071-DCZ001-MDZ014-506-PAZ021-071-NJZ106-
NYZ176-178-MAZ106-OHZ011-021-055-MIZ076-KYZ091-ILZ014-INZ047-
MNZ060-ONZ431-292200-

...Gateway Observations for Savannah International...

CITY           SKY/WX    TMP DP  RH WIND       PRES   REMARKS
Savannah Arpt  MOSUNNY   95  65  37 W7        29.97S HX  97
Atlanta        LGT RAIN  72  69  90 N6        30.03F
Charlotte      PTSUNNY   84  62  47 W6        29.97F
Dallas DFW     PTSUNNY   88  48  25 NE8       30.01F
Houston Bush   CLOUDY    80  68  66 NE10      29.99S
Wash National  PTSUNNY   83  53  35 NW14      29.94R
Wash Dulles    PTSUNNY   80  55  42 W8        29.96R
Baltimore      PTSUNNY   75  67  76 E9        29.95R
Philadelphia   CLOUDY    64  58  80 E8        30.00S
Newark         CLOUDY    60  53  77 VRB5      30.03R
Laguardia      CLOUDY    57  52  83 NE10      30.02S
J F K          CLOUDY    59  55  87 SE7       30.04R
Boston         LGT RAIN  50  49  96 NE9       30.09R FOG
Pittsburg      MOSUNNY   78  47  33 SW9       29.94S
Akron          CLOUDY    75  49  39 SW10G21   29.92R
Cleveland      MOSUNNY   81  51  35 SW20G29   29.88R
Cincinnati     PTSUNNY   80  53  39 SW12G20   29.93F
Columbus       CLOUDY    76  51  41 SW12G18   29.91F
Detroit        CLOUDY    73  55  53 SW14      29.83S
Chicago O`Hare MOSUNNY   75  43  31 W22G30    29.82S
Minneapolis    PTSUNNY   64  47  53 W16G28    29.81F
Indianapolis   MOSUNNY   81  50  33 W17G25    29.89F
Toronto Canada PTSUNNY   77  45  31 SW15      29.79S

$$




USA.gov is the U.S. government's official web portal to all federal, state and local government web resources and services.